Camdenton, MO

10:05 PM CDT on May 27, 2017 (GMT -0500)
Camdenton

Weather History for KH21 - April, 2014

Change the Weather History Date:

Wednesday, April 2, 2014

  Actual Average (KAIZ) Record (KAIZ)
Temperature  
Mean Temperature 54 °F -  
Max Temperature 64 °F 61 °F 89 °F (2012)
Min Temperature 44 °F 41 °F 28 °F (2013)
Degree Days  
Heating Degree Days 11    
Growing Degree Days 4 (Base 50)    
Moisture  
Dew Point 47 °F    
Average Humidity 91    
Maximum Humidity 100    
Minimum Humidity 87    
Precipitation  
Precipitation 0.07 in - - ()
Sea Level Pressure  
Sea Level Pressure 29.87 in    
Wind  
Wind Speed 8 mph (ENE)    
Max Wind Speed 14 mph    
Max Gust Speed 23 mph    
Visibility 8 miles    
Events Rain , Thunderstorm    
Averages and records for this station are not official NWS values.
T = Trace of Precipitation, MM = Missing Value Source: NWS Daily Summary

Daily Weather History Graph

Daily Weather History Graph

Search for Another Location

Airport or City:

Trip Planner

Search our weather history database for the weather conditions in past years. The results will help you decide how hot, cold, wet, or windy it might be!

Date:

Astronomy

Apr. 02, 2014 Rise Set
Actual Time 6:54 AM CDT 7:34 PM CDT
Civil Twilight 6:27 AM CDT 8:01 PM CDT
Nautical Twilight 5:56 AM CDT 8:32 PM CDT
Astronomical Twilight 5:24 AM CDT 9:05 PM CDT
Moon 8:41 AM CDT (4/2) 10:55 PM CDT (4/2)
Length of Visible Light 13h 33m
Length of Day
12h 40m
Waxing Crescent, 10% of the Moon is Illuminated
Apr 2
Waxing Crescent
Apr 7
First Quarter
Apr 15
Full
Apr 22
Last Quarter
Apr 29
New

Hourly Weather History & Observations

Time (CDT) Temp. Windchill Dew Point Humidity Pressure Visibility Wind Dir Wind Speed Gust Speed Precip Events Conditions
12:15 AM 44.6 °F 42.2 °F 41.0 °F 87% 29.96 in 10.0 mi NE 4.6 mph - N/A   Scattered Clouds
12:35 AM 44.6 °F 42.2 °F 41.0 °F 87% 29.95 in 10.0 mi ENE 4.6 mph - N/A   Scattered Clouds
12:55 AM 44.6 °F 42.2 °F 41.0 °F 87% 29.95 in 10.0 mi ENE 4.6 mph - N/A   Overcast
1:15 AM 44.6 °F 43.1 °F 41.0 °F 87% 29.95 in 10.0 mi NNE 3.5 mph - N/A   Overcast
1:35 AM 44.6 °F 42.2 °F 41.0 °F 87% 29.95 in 10.0 mi ENE 4.6 mph - N/A   Overcast
1:55 AM 44.6 °F 42.2 °F 41.0 °F 87% 29.95 in 10.0 mi ENE 4.6 mph - N/A   Overcast
2:15 AM 44.6 °F 40.2 °F 41.0 °F 87% 29.96 in 10.0 mi NNW 8.1 mph - N/A   Overcast
2:35 AM 44.6 °F 40.2 °F 41.0 °F 87% 29.97 in 10.0 mi North 8.1 mph - N/A   Overcast
2:55 AM 44.6 °F 40.7 °F 41.0 °F 87% 29.97 in 10.0 mi NNW 6.9 mph - N/A   Overcast
3:15 AM 44.6 °F 40.2 °F 41.0 °F 87% 29.96 in 10.0 mi NNE 8.1 mph - N/A   Overcast
3:35 AM 44.6 °F 39.2 °F 41.0 °F 87% 29.96 in 10.0 mi NNE 10.4 mph - N/A   Overcast
3:55 AM 44.6 °F 38.4 °F 41.0 °F 87% 29.96 in 10.0 mi NNE 12.7 mph - N/A   Overcast
4:15 AM 44.6 °F 41.4 °F 41.0 °F 87% 29.95 in 10.0 mi NE 5.8 mph - N/A   Overcast
4:35 AM 44.6 °F 39.7 °F 41.0 °F 87% 29.95 in 10.0 mi NE 9.2 mph - N/A   Overcast
4:55 AM 44.6 °F 40.7 °F 41.0 °F 87% 29.95 in 10.0 mi NE 6.9 mph - N/A   Overcast
5:15 AM 44.6 °F 40.2 °F 41.0 °F 87% 29.95 in 10.0 mi ENE 8.1 mph - N/A   Overcast
5:35 AM 44.6 °F 40.2 °F 41.0 °F 87% 29.93 in 10.0 mi ENE 8.1 mph - N/A   Overcast
5:55 AM 44.6 °F 40.2 °F 41.0 °F 87% 29.93 in 10.0 mi ENE 8.1 mph - N/A   Overcast
6:15 AM 44.6 °F 39.7 °F 41.0 °F 87% 29.92 in 10.0 mi ENE 9.2 mph - N/A   Overcast
7:35 AM 46.4 °F 41.1 °F 42.8 °F 87% 29.89 in 7.0 mi East 11.5 mph - N/A   Overcast
7:55 AM 46.4 °F 41.5 °F 42.8 °F 87% 29.88 in 7.0 mi East 10.4 mph - N/A   Overcast
8:15 AM 46.4 °F 41.5 °F 42.8 °F 87% 29.87 in 10.0 mi East 10.4 mph - N/A   Overcast
8:35 AM 46.4 °F 41.1 °F 42.8 °F 87% 29.86 in 10.0 mi East 11.5 mph - N/A Rain , Thunderstorm Light Thunderstorms and Rain
8:55 AM 48.2 °F - 44.6 °F 87% 29.89 in 10.0 mi NNW 12.7 mph - N/A Thunderstorm Overcast
9:15 AM 46.4 °F 42.9 °F 44.6 °F 93% 29.89 in 10.0 mi North 6.9 mph - N/A   Overcast
9:35 AM 46.4 °F 40.7 °F 44.6 °F 93% 29.91 in 7.0 mi NNW 12.7 mph - N/A Rain , Thunderstorm Light Thunderstorms and Rain
9:55 AM 44.6 °F 39.2 °F 42.8 °F 93% 29.90 in 5.0 mi NNE 10.4 mph - N/A Thunderstorm Drizzle
10:15 AM 44.6 °F 39.7 °F 42.8 °F 93% 29.92 in 4.0 mi NNE 9.2 mph - N/A Rain , Thunderstorm Rain
10:35 AM 44.6 °F 39.2 °F 42.8 °F 93% 29.94 in 3.0 mi North 10.4 mph 19.6 mph 0.02 in Rain Light Rain
10:55 AM 44.6 °F 38.4 °F 42.8 °F 93% 29.93 in 5.0 mi NNE 12.7 mph 23.0 mph 0.03 in Rain Light Rain
11:35 AM 44.6 °F 38.8 °F 44.6 °F 100% 29.92 in 5.0 mi NE 11.5 mph 16.1 mph 0.01 in Rain , Thunderstorm Light Thunderstorms and Rain
11:55 AM 44.6 °F 39.2 °F 44.6 °F 100% 29.93 in 4.0 mi ENE 10.4 mph 20.7 mph 0.03 in Rain Light Rain
12:15 PM 44.6 °F 39.2 °F 44.6 °F 100% 29.92 in 5.0 mi ENE 10.4 mph 19.6 mph N/A Rain Light Rain
12:55 PM 46.4 °F 41.1 °F 44.6 °F 93% 29.90 in 10.0 mi East 11.5 mph 17.3 mph N/A   Overcast
1:15 PM 46.4 °F 40.7 °F 44.6 °F 93% 29.90 in 10.0 mi East 12.7 mph 18.4 mph 0.01 in Rain Light Rain
1:35 PM 46.4 °F 42.9 °F 44.6 °F 93% 29.89 in 7.0 mi East 6.9 mph 16.1 mph 0.01 in Rain , Thunderstorm Light Thunderstorms and Rain
1:55 PM 46.4 °F 40.4 °F 44.6 °F 93% 29.88 in 7.0 mi East 13.8 mph - 0.01 in   Overcast
2:15 PM 46.4 °F 41.9 °F 44.6 °F 93% 29.87 in 7.0 mi East 9.2 mph 16.1 mph N/A   Light Drizzle
2:35 PM 48.2 °F - 46.4 °F 93% 29.87 in 7.0 mi East 9.2 mph - N/A   Overcast
2:55 PM 50.0 °F - 46.4 °F 87% 29.85 in 7.0 mi East 13.8 mph - N/A   Overcast
3:15 PM 50.0 °F - 46.4 °F 87% 29.85 in 7.0 mi East 10.4 mph - N/A   Overcast
3:35 PM 50.0 °F - 48.2 °F 94% 29.84 in 7.0 mi East 11.5 mph - N/A   Overcast
3:55 PM 51.8 °F - 50.0 °F 94% 29.84 in 7.0 mi East 10.4 mph - N/A   Overcast
4:15 PM 51.8 °F - 50.0 °F 94% 29.83 in 7.0 mi East 9.2 mph - N/A   Overcast
4:35 PM 51.8 °F - 50.0 °F 94% 29.83 in 7.0 mi East 9.2 mph - N/A   Overcast
5:15 PM 51.8 °F - 50.0 °F 94% 29.82 in 7.0 mi East 9.2 mph - N/A   Overcast
5:35 PM 53.6 °F - 50.0 °F 88% 29.81 in 7.0 mi East 8.1 mph - N/A   Overcast
5:55 PM 53.6 °F - 51.8 °F 94% 29.80 in 7.0 mi East 6.9 mph - N/A   Overcast
6:15 PM 53.6 °F - 51.8 °F 94% 29.80 in 7.0 mi East 8.1 mph - N/A   Overcast
6:35 PM 53.6 °F - 51.8 °F 94% 29.79 in 10.0 mi East 8.1 mph - N/A   Mostly Cloudy
6:55 PM 55.4 °F - 53.6 °F 94% 29.78 in 10.0 mi East 6.9 mph - N/A   Scattered Clouds
7:15 PM 55.4 °F - 51.8 °F 88% 29.77 in 7.0 mi East 6.9 mph - N/A   Clear
7:35 PM 53.6 °F - 51.8 °F 94% 29.77 in 7.0 mi ENE 5.8 mph - N/A   Scattered Clouds
7:55 PM 53.6 °F - 51.8 °F 94% 29.78 in 7.0 mi ENE 5.8 mph - N/A   Scattered Clouds
8:15 PM 53.6 °F - 51.8 °F 94% 29.79 in 7.0 mi NE 5.8 mph - N/A   Mostly Cloudy
8:35 PM 53.6 °F - 51.8 °F 94% 29.80 in 7.0 mi ENE 4.6 mph - N/A   Overcast
8:55 PM 53.6 °F - 51.8 °F 94% 29.80 in 7.0 mi ENE 5.8 mph - N/A   Scattered Clouds
9:15 PM 53.6 °F - 53.6 °F 100% 29.79 in 5.0 mi East 4.6 mph - N/A   Mostly Cloudy
9:35 PM 53.6 °F - 51.8 °F 94% 29.79 in 5.0 mi East 6.9 mph - N/A   Overcast
9:55 PM 55.4 °F - 53.6 °F 94% 29.78 in 5.0 mi ESE 6.9 mph - N/A   Overcast
10:15 PM 55.4 °F - 55.4 °F 100% 29.77 in 5.0 mi ESE 6.9 mph - N/A   Overcast
10:35 PM 59.0 °F - 59.0 °F 100% 29.75 in 7.0 mi SE 9.2 mph - N/A   Overcast
10:55 PM 62.6 °F - 60.8 °F 94% 29.76 in 10.0 mi SE 11.5 mph 18.4 mph N/A   Overcast
11:15 PM 64.4 °F - 60.8 °F 88% 29.76 in 10.0 mi SE 12.7 mph - N/A   Overcast
11:35 PM 64.4 °F - 62.6 °F 94% 29.75 in 10.0 mi SE 13.8 mph 18.4 mph N/A   Overcast